Terminal Aerodrome Forecast
Issued by NWS Duluth, MN

Home | Current Version | Previous Version | Text Only | Print | Product List | Glossary On
Versions: 1 2 3 4 5 6 7 8 9 10 11 12 13 14 15 16 17 18 19 20 21 22 23 24 25 26 27 28 29 30 31 32 33 34 35 36 37 38 39 40 41 42 43 44 45 46 47
409
FTUS43 KDLH 241945 AAE
TAFDLH
TAF AMD
KDLH 241945Z 2420/2518 03008KT P6SM OVC015
      TEMPO 2420/2424 OVC020
     FM250000 06008KT P6SM OVC025
     FM250800 08009G17KT P6SM BKN015
     FM251400 09012G20KT P6SM BKN025=

USA.gov is the U.S. government's official web portal to all federal, state and local government web resources and services.